STARLINK-1740 (46566 NORAD) Tracking and Keplerian Element Data

This shows tracking and keplerian element data for the satellite.

Feedback or suggestion? Click here.




ElementValue
Catalog46566
NameSTARLINK-1740
Epoch Orbit428
Epoch Day304.50002315
Epoch Year2020
RAAN323.9504
Inclination53.0015
Eccentricity0.0001041
Argument of Perigee52.1502
Mean Anonmoly37.7273
Mean Motion15.62694075
Decay Rate0.0003639
L11 46566U 20070AL 20304.50002315 .00036390 00000-0 40239-3 0 9993
L22 46566 53.0015 323.9504 0001041 52.1502 37.7273 15.62694075 4288

Live tracking and technical data element details for STARLINK-1740 (NORAD 46566). STARLINK-1740 can be tracked NOW for your location showing map with azimuth and elevation plus other details from your city location.

Track the satellite on the map from your city or location and see movement details for azimuth, elevation, latitude, longitude, range, height, and movement on the map or in text.







IsCatalogInMostPopularTable: catalog: 46566, numindb: 3
Update: records affected: 1



GetName: 46566 STARLINK-1740

Hit Count: updated at: Sat, 31 Oct 2020 07:42:49 GMT